Regional Weather Roundup
Issued by NWS

Current Version | Previous Version | Text Only | Print | Product List | Glossary On
Versions: 1 2 3 4 5 6 7 8 9 10 11 12 13 14 15 16 17 18 19 20 21 22 23 24 25 26 27 28 29 30 31 32 33 34 35 36 37 38 39 40 41 42 43 44 45 46 47 48 49 50
000
ASUS44 KFWD 180315
RWRTX
NORTH TEXAS HOURLY WEATHER ROUNDUP
NATIONAL WEATHER SERVICE FORT WORTH TX
1000 PM CDT WED SEP 17 2014

NOTE: "FAIR" INDICATES FEW OR NO CLOUDS BELOW 12,000 FEET WITH NO
SIGNIFICANT WEATHER AND/OR OBSTRUCTIONS TO VISIBILITY.

TXZ118-119-180400-
DALLAS/FORT WORTH METROPLEX

CITY           SKY/WX    TMP DP  RH WIND       PRES   REMARKS
DFW AIRPORT    CLOUDY    80  72  76 E3        29.88S
DALLAS LOVE    CLOUDY    83  69  62 SE10      29.88F
FTW MEACHAM    CLOUDY    82  70  66 S9        29.89R
DAL-EXECUTIVE  CLOUDY    78  74  87 SE3       29.89S
FTW-ALLIANCE   CLOUDY    78  72  81 CALM      29.88S
FTW-NAS-JRB    CLOUDY    83  69  62 SW6       29.94R
FTW-SPINKS     CLOUDY    78  73  84 S5        29.91S
ARLINGTON      CLOUDY    82  70  66 SE5       29.89S
GRAND PRAIRIE  CLOUDY    81  71  71 CALM      29.90S
MESQUITE       CLOUDY    78  70  76 SE6       29.89
LANCASTER      CLOUDY    76  73  90 CALM      29.90S
$$

TXZ091>094-102>105-117-120-121-131>134-180400-
NORTH CENTRAL TEXAS

CITY           SKY/WX    TMP DP  RH WIND       PRES   REMARKS
SHRMAN/DENISON CLOUDY    80  70  72 CALM      29.91R
GAINESVILLE    CLOUDY    79  70  73 CALM      29.92R
BOWIE          CLOUDY    76  69  79 CALM      29.91R
BRIDGEPORT     CLOUDY    75  71  87 CALM      29.91F
DECATUR        CLOUDY    78  68  71 S8        29.90S
DENTON         CLOUDY    80  69  69 S5        29.89S
MCKINNEY       CLOUDY    80  71  74 SE3       29.89S
GREENVILLE     MOCLDY    79  70  73 SE3       29.91R
ROCKWALL       CLOUDY    78  72  81 SE3       29.89S
TERRELL        CLOUDY    83  71  67 SE6       29.90S
WAXAHACHIE     LGT RAIN  77  74  88 S6        29.92R
CLEBURNE       CLOUDY    77  77 100 CALM      29.93S
GRANBURY       CLOUDY    76  73  90 CALM      29.92R
$$

TXZ083>090-098>101-113>116-127>130-139>142-154-155-180400-
WESTERN NORTH TEXAS

CITY           SKY/WX    TMP DP  RH WIND       PRES   REMARKS
WICHITA FALLS  CLOUDY    75  71  87 S6        29.90R
WF-KICKAPOO    CLOUDY    77  68  73 S7        29.92R
VERNON         CLOUDY    81  65  58 S12       29.93R
ABILENE        LGT RAIN  74  70  87 E8        29.97R
ABILENE-DYESS  CLOUDY    74  67  80 E6        29.97R
BRECKENRIDGE   CLOUDY    75  74  95 CALM      29.94R
GRAHAM         CLOUDY    74  70  85 CALM      29.92R
MINERAL WELLS  CLOUDY    74  72  93 SW3       29.91R
STEPHENVILLE   CLOUDY    73  69  87 CALM      29.97R
COMANCHE       CLOUDY    73  72  98 SE5       29.95R
BROWNWOOD      CLOUDY    73  70  88 SE7       29.95R
COLEMAN        CLOUDY    73  70  88 E5        29.97R
BRADY          LGT RAIN  75  72  88 E6        29.97R
$$

TXZ143>147-156>162-174-175-180400-
CENTRAL TEXAS

CITY           SKY/WX    TMP DP  RH WIND       PRES   REMARKS
WACO           LGT RAIN  74  72  93 S8        29.94R
WACO-TSTC      HVY RAIN  75  73  94 SE5       29.93R
WACO-MCGREGOR  CLOUDY    73  66  78 S10       29.94R
HILLSBORO      RAIN      76  70  80 S7        29.93R
CORSICANA      CLOUDY    80  70  71 S12       29.92R
MEXIA          LGT RAIN  77  71  81 S7        29.92R
HEARNE         CLOUDY    76  74  92 E3        29.93R
CAMERON        LGT RAIN  78  73  82 SE7       29.93R
TEMPLE         CLOUDY    72  66  83 SE7       29.96R THUNDER
KILLEEN        TSTM      75  73  94 NE12      29.95R
KILLEEN-SKYLRK CLOUDY    73  68  83 NE15G22   29.95R THUNDER
FORT HOOD      CLOUDY    75  72  88 E13G28    29.95R THUNDER FOG
GATESVILLE     HVY RAIN  73  73 100 E3        29.97R
HAMILTON       CLOUDY    74  74 100 SE6G16    29.95S
LAMPASAS       RAIN      76  73  91 N8        29.94R
$$

TXZ095>097-106>112-122>126-135>138-148>153-164>167-180400-
EAST TEXAS

CITY           SKY/WX    TMP DP  RH WIND       PRES   REMARKS
PARIS          MOCLDY    79  70  73 SE7       29.93R
SULPHUR SPRNGS MOCLDY    80  68  67 SE7       29.93S
MOUNT PLEASANT MOCLDY    75  65  71 CALM      29.92F
GILMER         MOCLDY    75  75 100 CALM      29.93S FOG
MINEOLA        MOCLDY    77  72  83 CALM      29.92S
TYLER          PTCLDY    79  71  76 SE8       29.91R
LONGVIEW       PTCLDY    77  72  84 SE3       29.91S
MARSHALL       MOCLDY    82  71  71 CALM      29.93F
ATHENS         MOCLDY    79  70  73 S12       29.91R
PALESTINE      CLOUDY    77  72  84 SE5       29.93S
JACKSONVILLE   MOCLDY    76  71  82 S7        29.94F
HENDERSON      PTCLDY    76  72  85 CALM      29.92F
NACOGDOCHES    MOCLDY    75  72  88 S3        29.94S
LUFKIN         CLOUDY    77  72  84 CALM      29.92S
$$

SUPPLEMENTAL OBSERVATIONS (CENTRAL)

CITY           SKY/WX    TMP DP  RH WIND       PRES   REMARKS
LAKE TEXOMA      N/A     81  70  69 SE2         N/A
CADDO GRASSLND   N/A     81  72  74 S3          N/A
PAT MAYSE LAKE   N/A     79  72  78 E5          N/A
PALESTINE        N/A     75  70  83 SE3         N/A
MCGREGOR         N/A     73  68  83 S12         N/A
TEMPLE           N/A     72  68  88 NE15G36     N/A
$$

SUPPLEMENTAL OBSERVATIONS (WEST)

CITY           SKY/WX    TMP DP  RH WIND       PRES   REMARKS
MILLERS CREEK    N/A     75  66  73 S7          N/A
POSSUM KINGDOM   N/A     73  68  83 S3          N/A
LBJ GRASSLAND    N/A     75  68  78 SE5         N/A
GRANBURY         N/A     75  72  88 SW2         N/A
HAMBY            N/A     73  70  88 E2G12       N/A
IVIE RESERVOIR   N/A     77  68  73 E7          N/A
COLORADO BEND    N/A     73  70  88 NE3G14      N/A
$$

SUPPLEMENTAL OBSERVATIONS (EAST)

CITY           SKY/WX    TMP DP  RH WIND       PRES   REMARKS
CADDO LAKE       N/A     73  70  88 CALM        N/A
GILMER           N/A     75  73  94 CALM        N/A
HENDERSON        N/A     77  72  83 S5          N/A
LUFKIN           N/A     73  70  88 MISG        N/A
N SABINE NF      N/A     75  72  88 MISG        N/A
$$

SUPPLEMENTAL OBSERVATIONS ARE A COLLECTION OF AUTOMATED INSTRUMENTS
THAT ARE MAINTAINED BY A VARIETY OF FEDERAL AND STATE AGENCIES.
CERTAIN ELEMENTS...SUCH AS HUMIDITY VALUES AND SUSTAINED WIND
SPEEDS...MAY BE APPROXIMATED.




USA.gov is the U.S. government's official web portal to all federal, state and local government web resources and services.